Weather History for MMQT - September, 2013

Change the Weather History Date:

Tuesday, September 24, 2013

  Actual Average Record
Temperature  
Mean Temperature 72 °F -  
Max Temperature 82 °F 75 °F 82 °F (2005)
Min Temperature 59 °F 55 °F 48 °F (2005)
Cooling Degree Days 7    
Growing Degree Days 22 (Base 50)    
Moisture  
Dew Point 57 °F    
Average Humidity 65    
Maximum Humidity 94    
Minimum Humidity 27    
Precipitation  
Precipitation 0.00 in - - ()
Sea Level Pressure  
Sea Level Pressure 30.08 in    
Wind  
Wind Speed 3 mph ()    
Max Wind Speed 14 mph    
Max Gust Speed -    
Visibility 7.7 miles    
Events      
Averages and records for this station are not official NWS values.
T = Trace of Precipitation, MM = Missing Value Source: Averaged Metar Reports

Daily Weather History Graph

Daily Weather History Graph

Search for Another Location

Airport or City:

Trip Planner

Search our weather history database for the weather conditions in past years. The results will help you decide how hot, cold, wet, or windy it might be!

Date:

Astronomy

Sep. 24, 2013 Rise Set
Actual Time 7:30 AM CDT 7:34 PM CDT
Civil Twilight 7:08 AM CDT 7:56 PM CDT
Nautical Twilight 6:42 AM CDT 8:22 PM CDT
Astronomical Twilight 6:16 AM CDT 8:48 PM CDT
Moon 11:32 PM CDT (9/24) 12:08 PM CDT (9/24)
Length of Visible Light 12h 48m
Length of Day
12h 04m
Waning Gibbous, 73% of the Moon is Illuminated
Sep 24
Waning Gibbous
Sep 26
Last Quarter
Oct 4
New
Oct 11
First Quarter
Oct 18
Full

Hourly Weather History & Observations

Time (CDT) Temp. Dew Point Humidity Pressure Visibility Wind Dir Wind Speed Gust Speed Precip Events Conditions
12:45 AM 66 °F 57 °F 66% 29.66 in 6 mi East 2.2 mph - -   Scattered Clouds
12:45 AM 66.2 °F 59.0 °F 78% 30.23 in 7.0 mi Calm Calm - N/A   Mostly Cloudy
1:45 AM 66.2 °F 59.0 °F 78% 30.24 in 7.0 mi Calm Calm - N/A   Mostly Cloudy
2:45 AM 66.2 °F 59.0 °F 78% 30.21 in 7.0 mi Calm Calm - N/A   Mostly Cloudy
3:40 AM 64 °F 58 °F 75% 29.77 in 6 mi East 2.2 mph - -   Scattered Clouds
3:45 AM 64.4 °F 55.4 °F 73% 30.20 in 7.0 mi Calm Calm - N/A   Mostly Cloudy
4:45 AM 64.4 °F 55.4 °F 73% 30.21 in 7.0 mi Calm Calm - N/A   Mostly Cloudy
5:45 AM 64.4 °F 55.4 °F 73% 30.20 in 7.0 mi Calm Calm - N/A   Mostly Cloudy
6:40 AM 63 °F 57 °F 76% 29.76 in 6 mi East 4.5 mph - -   Partly Cloudy
6:45 AM 62.6 °F 55.4 °F 77% 30.21 in 7.0 mi Calm Calm - N/A   Mostly Cloudy
7:40 AM 64.4 °F 62.6 °F 94% 30.22 in 5.0 mi Calm Calm - N/A   Mostly Cloudy
8:45 AM 64.4 °F 62.6 °F 94% 30.23 in 4.0 mi Calm Calm - N/A   Mostly Cloudy
9:40 AM 67 °F 58 °F 66% 29.81 in 16 mi NE 4.5 mph - -   Partly Cloudy
9:45 AM 68.0 °F 62.6 °F 83% 30.25 in 4.0 mi Calm Calm - N/A   Mostly Cloudy
10:45 AM 69.8 °F 62.6 °F 78% 30.26 in 5.0 mi WSW 4.6 mph - N/A   Mostly Cloudy
11:45 AM 71.6 °F 60.8 °F 69% 30.26 in 6.0 mi Calm Calm - N/A   Mostly Cloudy
12:40 PM 78 °F 56 °F 36% 29.77 in 16 mi ENE 4.5 mph - -   Partly Cloudy
12:45 PM 75.2 °F 59.0 °F 57% 30.25 in 6.0 mi Calm Calm - N/A   Mostly Cloudy
1:45 PM 78.8 °F 59.0 °F 51% 30.22 in 7.0 mi NE 3.5 mph - N/A   Mostly Cloudy
2:45 PM 77.0 °F 59.0 °F 54% 30.18 in 7.0 mi NE 9.2 mph - N/A   Mostly Cloudy
3:45 PM 73.4 °F 55.4 °F 53% 30.17 in 7.0 mi NE 11.5 mph - N/A   Mostly Cloudy
3:48 PM 82 °F 56 °F 30% 29.63 in 12 mi East 6.7 mph - -   Partly Cloudy
4:45 PM 78.8 °F 57.2 °F 47% 30.14 in 7.0 mi ENE 11.5 mph - N/A   Mostly Cloudy
5:45 PM 77.0 °F 57.2 °F 50% 30.15 in 6.0 mi NE 5.8 mph - N/A   Mostly Cloudy
6:45 PM 75.2 °F 57.2 °F 53% 30.14 in 7.0 mi East 11.5 mph - N/A   Mostly Cloudy
6:50 PM 76 °F 48 °F 27% 29.55 in 12 mi NE 11.2 mph - -   Partly Cloudy
7:45 PM 69.8 °F 59.0 °F 68% 30.18 in 7.0 mi NE 6.9 mph - N/A   Mostly Cloudy
8:45 PM 66.2 °F 55.4 °F 68% 30.17 in 7.0 mi NE 13.8 mph - N/A   Mostly Cloudy
9:45 PM 66 °F 48 °F 42% 29.65 in 16 mi East 11.2 mph - -   Scattered Clouds
9:45 PM 64.4 °F 53.6 °F 68% 30.21 in 7.0 mi SSE 6.9 mph - N/A   Mostly Cloudy
10:45 PM 62.6 °F 53.6 °F 72% 30.23 in 7.0 mi Calm Calm - N/A   Scattered Clouds
11:48 PM 59.0 °F 53.6 °F 82% 30.25 in 7.0 mi NE 5.8 mph - N/A   Partly Cloudy